When you browse on this site, cookies collect data to enhance your experience and personalize the content and advertising you see.
Visit our Privacy Policy to learn more. By continuing to use the site, you agree to this use of cookies and data.
  • en France
  • Liste des pays
  • À 7 jours
  • Température de l'eau
  • Carte météo
  • Widgets météo
  • user-avatar
    Se connecter

    Météo par heure à Potsdam

    Ce jour, 17 Février, Lundi

    Heure Température Précipitation Vent Pression Humidité
    00:00 +11°C° 0.1 mm 8 m/s 749 mmHg 69%
    01:00 +10°C° 0.1 mm 7 m/s 750 mmHg 77%
    02:00 +10°C° 0.2 mm 7 m/s 750 mmHg 76%
    03:00 +9°C° 0.2 mm 7 m/s 751 mmHg 75%
    04:00 +9°C° 0.2 mm 6 m/s 751 mmHg 74%
    05:00 +8°C° 0 mm 6 m/s 753 mmHg 73%
    06:00 +8°C° 0 mm 6 m/s 754 mmHg 71%
    07:00 +7°C° 0 mm 6 m/s 755 mmHg 70%
    08:00 +7°C° 0 mm 6 m/s 755 mmHg 66%
    09:00 +7°C° 0 mm 6 m/s 755 mmHg 61%
    10:00 +8°C° 0 mm 6 m/s 756 mmHg 57%
    11:00 +8°C° 0 mm 6 m/s 756 mmHg 55%
    12:00 +8°C° 0 mm 6 m/s 756 mmHg 54%
    13:00 +9°C° 0 mm 6 m/s 756 mmHg 52%
    14:00 +9°C° 0 mm 5 m/s 756 mmHg 54%
    15:00 +8°C° 0 mm 5 m/s 756 mmHg 57%
    16:00 +8°C° 0 mm 5 m/s 756 mmHg 59%
    17:00 +7°C° 0 mm 4 m/s 756 mmHg 64%
    18:00 +7°C° 0 mm 4 m/s 756 mmHg 68%
    19:00 +6°C° 0 mm 4 m/s 756 mmHg 73%
    20:00 +6°C° 0 mm 4 m/s 756 mmHg 74%
    21:00 +6°C° 0 mm 5 m/s 755 mmHg 75%
    22:00 +6°C° 0 mm 5 m/s 755 mmHg 75%
    23:00 +5°C° 0 mm 5 m/s 756 mmHg 76%

    Demain, 18 Février, Mardi

    Heure Température Précipitation Vent Pression Humidité
    00:00 +5°C° 0 mm 5 m/s 756 mmHg 76%
    01:00 +5°C° 0 mm 5 m/s 756 mmHg 76%
    02:00 +4°C° 0 mm 6 m/s 756 mmHg 75%
    03:00 +4°C° 0 mm 6 m/s 756 mmHg 75%
    04:00 +4°C° 0 mm 6 m/s 756 mmHg 74%
    05:00 +4°C° 0 mm 6 m/s 757 mmHg 75%
    06:00 +4°C° 0 mm 6 m/s 757 mmHg 77%
    07:00 +4°C° 0 mm 6 m/s 758 mmHg 78%
    08:00 +4°C° 0.1 mm 7 m/s 758 mmHg 72%
    09:00 +4°C° 0.1 mm 8 m/s 759 mmHg 66%
    10:00 +3°C° 0.1 mm 9 m/s 759 mmHg 60%
    11:00 +5°C° 0 mm 9 m/s 760 mmHg 60%
    12:00 +5°C° 0 mm 8 m/s 760 mmHg 59%
    13:00 +5°C° 0 mm 8 m/s 760 mmHg 59%
    14:00 +5°C° 0 mm 8 m/s 760 mmHg 59%
    15:00 +5°C° 0 mm 7 m/s 760 mmHg 59%
    16:00 +4°C° 0 mm 6 m/s 760 mmHg 59%
    17:00 +5°C° 0 mm 5 m/s 760 mmHg 62%
    18:00 +3°C° 0 mm 5 m/s 760 mmHg 65%
    19:00 +3°C° 0 mm 4 m/s 760 mmHg 68%
    20:00 +3°C° 0 mm 4 m/s 760 mmHg 71%
    21:00 +2°C° 0 mm 5 m/s 760 mmHg 73%
    22:00 +2°C° 0 mm 5 m/s 760 mmHg 76%
    23:00 +3°C° 0 mm 5 m/s 759 mmHg 75%

    Après-demain, 19 Février, Mercredi

    Heure Température Précipitation Vent Pression Humidité
    00:00 +3°C° 0 mm 5 m/s 758 mmHg 75%
    01:00 +3°C° 0 mm 6 m/s 758 mmHg 75%
    02:00 +3°C° 0 mm 6 m/s 757 mmHg 76%
    03:00 +3°C° 0 mm 6 m/s 757 mmHg 77%
    04:00 +3°C° 0 mm 7 m/s 756 mmHg 78%
    05:00 +3°C° 0 mm 6 m/s 756 mmHg 79%
    06:00 +3°C° 0 mm 6 m/s 755 mmHg 79%
    07:00 +3°C° 0 mm 6 m/s 755 mmHg 80%
    08:00 +3°C° 0.2 mm 6 m/s 755 mmHg 81%
    09:00 +3°C° 0.2 mm 6 m/s 754 mmHg 83%
    10:00 +3°C° 0.2 mm 6 m/s 754 mmHg 84%
    11:00 +3°C° 0.1 mm 6 m/s 755 mmHg 77%
    12:00 +4°C° 0.1 mm 6 m/s 755 mmHg 69%
    13:00 +4°C° 0.1 mm 6 m/s 755 mmHg 62%
    14:00 +4°C° 0.2 mm 6 m/s 755 mmHg 62%
    15:00 +4°C° 0.2 mm 6 m/s 756 mmHg 61%
    16:00 +4°C° 0.2 mm 6 m/s 756 mmHg 61%
    17:00 +3°C° 0 mm 6 m/s 756 mmHg 68%
    18:00 +2°C° 0 mm 6 m/s 757 mmHg 75%
    19:00 +1°C° 0 mm 5 m/s 757 mmHg 82%
    20:00 +2°C° 0.3 mm 5 m/s 758 mmHg 83%
    21:00 +2°C° 0.3 mm 5 m/s 758 mmHg 84%
    22:00 +2°C° 0.3 mm 5 m/s 759 mmHg 84%
    23:00 +1°C° 0 mm 5 m/s 759 mmHg 84%

    20 Février, Jeudi

    Heure Température Précipitation Vent Pression Humidité
    00:00 +1°C° 0 mm 4 m/s 760 mmHg 84%
    01:00 0°C° 0 mm 4 m/s 760 mmHg 85%
    02:00 0°C° 0 mm 4 m/s 760 mmHg 86%
    03:00 0°C° 0 mm 3 m/s 760 mmHg 86%
    04:00 0°C° 0 mm 3 m/s 760 mmHg 87%
    05:00 -1°C° 0 mm 3 m/s 760 mmHg 88%
    06:00 -1°C° 0 mm 3 m/s 760 mmHg 89%
    07:00 -1°C° 0 mm 3 m/s 760 mmHg 89%
    08:00 0°C° 0 mm 3 m/s 760 mmHg 85%
    09:00 +1°C° 0 mm 3 m/s 760 mmHg 80%
    10:00 +1°C° 0 mm 4 m/s 760 mmHg 76%
    11:00 +3°C° 0 mm 4 m/s 759 mmHg 74%
    12:00 +4°C° 0 mm 4 m/s 759 mmHg 73%
    13:00 +5°C° 0 mm 4 m/s 759 mmHg 72%
    14:00 +5°C° 0 mm 4 m/s 758 mmHg 73%
    15:00 +5°C° 0 mm 4 m/s 758 mmHg 75%
    16:00 +5°C° 0 mm 4 m/s 758 mmHg 76%
    17:00 +5°C° 0 mm 4 m/s 757 mmHg 78%
    18:00 +5°C° 0 mm 4 m/s 757 mmHg 80%
    19:00 +4°C° 0 mm 4 m/s 757 mmHg 81%
    20:00 +4°C° 0 mm 4 m/s 757 mmHg 81%
    21:00 +3°C° 0 mm 5 m/s 757 mmHg 81%
    22:00 +3°C° 0 mm 5 m/s 757 mmHg 80%
    23:00 +4°C° 0 mm 6 m/s 756 mmHg 79%

    21 Février, Vendredi

    Heure Température Précipitation Vent Pression Humidité
    00:00 +4°C° 0 mm 6 m/s 756 mmHg 77%
    01:00 +5°C° 0 mm 6 m/s 756 mmHg 75%
    02:00 +4°C° 0 mm 6 m/s 756 mmHg 76%
    03:00 +4°C° 0 mm 7 m/s 756 mmHg 77%
    04:00 +4°C° 0 mm 7 m/s 757 mmHg 78%
    05:00 +3°C° 0 mm 6 m/s 758 mmHg 77%
    06:00 +2°C° 0 mm 6 m/s 759 mmHg 76%
    07:00 +1°C° 0 mm 6 m/s 759 mmHg 76%
    14:00 +4°C° 0 mm 7 m/s 763 mmHg 59%
    15:00 +4°C° 0 mm 6 m/s 763 mmHg 59%
    16:00 +4°C° 0 mm 6 m/s 763 mmHg 59%
    17:00 +5°C° 0 mm 5 m/s 763 mmHg 62%
    18:00 +3°C° 0 mm 5 m/s 764 mmHg 65%
    19:00 +3°C° 0 mm 4 m/s 764 mmHg 69%
    20:00 +4°C° 0 mm 4 m/s 763 mmHg 67%
    21:00 +3°C° 0 mm 5 m/s 763 mmHg 65%
    22:00 +3°C° 0 mm 5 m/s 763 mmHg 64%
    23:00 +3°C° 0 mm 6 m/s 762 mmHg 65%

    22 Février, Samedi

    Heure Température Précipitation Vent Pression Humidité
    00:00 +3°C° 0 mm 6 m/s 761 mmHg 67%
    01:00 +3°C° 0 mm 7 m/s 761 mmHg 68%
    02:00 +3°C° 0 mm 7 m/s 760 mmHg 70%
    03:00 +4°C° 0 mm 7 m/s 759 mmHg 72%
    04:00 +4°C° 0 mm 8 m/s 759 mmHg 74%
    05:00 +4°C° 0.2 mm 8 m/s 758 mmHg 76%
    06:00 +4°C° 0.2 mm 8 m/s 757 mmHg 77%
    07:00 +4°C° 0.2 mm 8 m/s 757 mmHg 79%
    08:00 +5°C° 0.2 mm 8 m/s 756 mmHg 79%
    09:00 +5°C° 0.2 mm 9 m/s 756 mmHg 78%
    10:00 +6°C° 0.2 mm 9 m/s 755 mmHg 78%
    11:00 +7°C° 0 mm 9 m/s 755 mmHg 76%
    12:00 +7°C° 0 mm 9 m/s 754 mmHg 75%
    13:00 +8°C° 0 mm 10 m/s 754 mmHg 73%
    14:00 +8°C° 0.5 mm 9 m/s 754 mmHg 73%
    15:00 +8°C° 0.5 mm 9 m/s 754 mmHg 73%
    16:00 +8°C° 0.5 mm 9 m/s 754 mmHg 72%
    17:00 +7°C° 0 mm 8 m/s 754 mmHg 72%
    18:00 +6°C° 0 mm 7 m/s 755 mmHg 71%
    19:00 +6°C° 0 mm 5 m/s 756 mmHg 71%
    20:00 +5°C° 0.1 mm 5 m/s 756 mmHg 74%
    21:00 +4°C° 0.1 mm 6 m/s 757 mmHg 77%
    22:00 +4°C° 0.1 mm 6 m/s 757 mmHg 80%
    23:00 +4°C° 0.1 mm 6 m/s 758 mmHg 79%
    Voir plus